Regional Weather Roundup
Issued by NWS Charleston, WV

Home | Current Version | Previous Version | Text Only | Print | Product List | Glossary Off
Versions: 1 2 3 4 5 6 7 8 9 10 11 12 13 14 15 16 17 18 19 20 21 22 23 24 25 26 27

000
ASUS41 KRLX 262310
RWRRLX
West Virginia Regional Weather Roundup
National Weather Service Charleston WV
700 PM EDT FRI MAY 26 2017

Note: "fair" indicates few or no clouds below 12,000 feet with no
significant weather and/or obstructions to visibility.

WVZ003-270000-
Northern Panhandle of West Virginia

CITY           SKY/WX    TMP DP  RH WIND       PRES   REMARKS
WHEELING       PTSUNNY   68  53  58 W9        29.88R
$$

WVZ009-270000-
Northwest West Virginia

CITY           SKY/WX    TMP DP  RH WIND       PRES   REMARKS
PARKERSBURG    SUNNY     73  54  51 W9        29.92R
$$

WVZ006-270000-
Western West Virginia

CITY           SKY/WX    TMP DP  RH WIND       PRES   REMARKS
HUNTINGTON     SUNNY     77  55  46 SW7       29.91R
$$

WVZ015-270000-
West Central West Virginia

CITY           SKY/WX    TMP DP  RH WIND       PRES   REMARKS
CHARLESTON     MOSUNNY   74  53  48 SW9       29.91S
$$

WVZ022-031-270000-
North Central West Virginia

CITY           SKY/WX    TMP DP  RH WIND       PRES   REMARKS
CLARKSBURG     SUNNY     71  53  52 W8        29.90R
MORGANTOWN     PTSUNNY   70  53  54 W6        29.90R
$$

WVZ025-035-042-045-270000-
Southern West Virginia

CITY           SKY/WX    TMP DP  RH WIND       PRES   REMARKS
BECKLEY        MOSUNNY   69  50  50 W7        29.98R
LOGAN            N/A     73  55  53 CALM      29.95S
BLUEFIELD      SUNNY     68  49  50 NW9       30.00R
LEWISBURG      PTSUNNY   68  51  52 W7        29.97R
$$

WVZ047-270000-
Northern Mountains of West Virginia

CITY           SKY/WX    TMP DP  RH WIND       PRES   REMARKS
ELKINS         PTSUNNY   69  51  52 W13G21    29.94R
$$

WVZ052-270000-
Eastern Panhandle of West Virginia

CITY           SKY/WX    TMP DP  RH WIND       PRES   REMARKS
MARTINSBURG    CLOUDY    72  53  51 NW8       29.84R
PETERSBURG     MOSUNNY   72  56  55 W13G18    29.88R
$$




USA.gov is the U.S. government's official web portal to all federal, state and local government web resources and services.